• MPC Preparation (Info)

  • MPEC 2023-F180 : 2023 FS5

    The following Minor Planet Electronic Circular may be linked-to from your own Web pages, but must not otherwise be redistributed electronically.

    A form allowing access to any MPEC is at the bottom of this page.


    Read MPEC 2023-F179 Read MPEC 2023-F181


    M.P.E.C. 2023-F180                               Issued 2023 March 28, 00:18 UT
    
         The Minor Planet Electronic Circulars contain information on unusual
             minor planets, routine data on comets and natural satellites,
             and occasional editorial announcements.  They are published
        on behalf of Division F of the International Astronomical Union by the
              Minor Planet Center, Smithsonian Astrophysical Observatory,
                              Cambridge, MA 02138, U.S.A.
    			  
                 Prepared using the Tamkin Foundation Computer Network
    
                                  MPC@CFA.HARVARD.EDU
                URL https://www.minorplanetcenter.net/    ISSN 1523-6714
    
                                    2023 FS5                                 
    
    
    Observations:
         K23F05S*1C2023 03 26.25160511 37 48.400+14 24 13.82         20.74GVEF180G96
         K23F05S 1C2023 03 26.25722711 37 46.297+14 24 23.98         20.76GVEF180G96
         K23F05S 1C2023 03 26.26283611 37 44.281+14 24 33.84         20.83GVEF180G96
         K23F05S 1C2023 03 26.26848611 37 42.143+14 24 43.99         21.16GVEF180G96
         K23F05S KC2023 03 26.29444411 37 32.552+14 25 30.11         20.48GVEF180I52
         K23F05S KC2023 03 26.29558711 37 32.113+14 25 31.66         20.75GVEF180I52
         K23F05S KC2023 03 26.29672511 37 31.688+14 25 34.00         20.86GVEF180I52
         K23F05S  C2023 03 26.31986111 37 25.038+14 26 20.89         20.68GVEF180F51
         K23F05S  C2023 03 26.34362611 37 16.332+14 27 03.20         20.74GVEF180F51
         K23F05S KC2023 03 26.34919911 37 12.493+14 27 05.18         20.92GVEF180I52
         K23F05S KC2023 03 26.35042011 37 12.032+14 27 07.42         20.87GVEF180I52
         K23F05S KC2023 03 26.35527311 37 10.265+14 27 15.48         20.72GVEF180I52
         K23F05S  C2023 03 26.36206011 37 09.618+14 27 35.40         21.52GVEF180F51
         K23F05S KC2023 03 27.16274111 32 48.728+14 48 45.68         21.09GVEF180I52
         K23F05S KC2023 03 27.16421211 32 48.361+14 48 47.66         21.79GVEF180I52
         K23F05S KC2023 03 27.16568311 32 47.843+14 48 49.90         21.48GVEF180I52
         K23F05S KC2023 03 27.16716811 32 47.353+14 48 53.21         20.79GVEF180I52
         K23F05S 1C2023 03 27.91082 11 29 13.45 +15 05 35.4          21.3 VXEF180033
         K23F05S 1C2023 03 27.91394 11 29 12.52 +15 05 39.8          20.9 VXEF180033
         K23F05S 1C2023 03 27.91706 11 29 11.66 +15 05 43.7          21.0 VXEF180033
    
    Observer details:
    033 Karl Schwarzschild Observatory, Tautenburg.  Observers S. Melnikov, C.
        Hoegner, F. Ludwig, B. Stecklum.  Measurer B. Stecklum.  1.34-m f/3
        Schmidt + CCD.
    F51 Pan-STARRS 1, Haleakala.  Observers J. Bulger, K. Chambers, T. Lowe, A.
        Schultz, I. Smith.  Measurers S. Chastel, J. Fairlamb, M. Huber, Y.
        Ramanjooloo, R. Wainscoat, R. Weryk.  1.8-m Ritchey-Chretien + CCD.
    G96 Mt. Lemmon Survey.  Observer H. Groeller.  Measurers E. J. Christensen, D.
        Fay, J. B. Fazekas, D. C. Fuls, A. R. Gibbs, A. D. Grauer, H. Groeller, J.
        K. Hogan, R. A. Kowalski, S. M. Larson, G. J. Leonard, D. Rankin, R. L.
        Seaman, A. Serrano, F. C. Shelly, K. W. Wierzchos.  1.5-m reflector + 10K
        CCD.
    I52 Steward Observatory, Mt. Lemmon Station.  Observer R. A. Kowalski.
        Measurers E. J. Christensen, D. Fay, J. B. Fazekas, D. C. Fuls, A. R.
        Gibbs, A. D. Grauer, H. Groeller, J. K. Hogan, R. A. Kowalski, S. M.
        Larson, G. J. Leonard, D. Rankin, R. L. Seaman, A. Serrano, F. C. Shelly,
        K. W. Wierzchos.  1.0-m prime focus + CCD.
    
    Orbital elements:
    2023 FS5                                                 Earth MOID = 0.0034 AU
    Epoch 2023 Feb. 25.0 TT = JDT 2460000.5                 Veres                   
    M   3.88825              (2000.0)            P               Q                  
    n   0.22737757     Peri.  220.11966     +0.79392333     -0.60771052             
    a   2.6585060      Node   177.09351     +0.60800370     +0.79372066             
    e   0.9482495      Incl.   22.41007     -0.00415396     +0.02637108             
    P   4.33           H   23.02          G   0.15           U   9                  
    Residuals in seconds of arc
    230326 G96  0.1+  0.0     230326 F51  0.0   0.0     230327 I52 (1.1+  0.7-)
    230326 G96  0.2-  0.1+    230326 F51  0.2-  0.1+    230327 I52  0.3+  0.6-
    230326 G96  0.7+  0.1-    230326 I52  0.2-  0.1-    230327 I52  0.0   0.5+
    230326 G96  0.0   0.0     230326 I52  0.5-  0.0     230327 033  0.5+  0.2-
    230326 I52  0.0   0.2+    230326 I52  0.5-  0.3-    230327 033  0.4-  0.3+
    230326 I52  0.3-  0.3-    230326 F51  0.1+  0.1-    230327 033  0.3-  0.2+
    230326 I52  0.4-  0.1+    230327 I52  0.3-  0.4-
    
    Ephemeris:
    2023 FS5                 a,e,i = 2.66, 0.95, 22                  q = 0.1376
    Date    TT    R. A. (2000) Decl.     Delta      r    Elong.  Phase     V
    2023 02 26    21 53 05.5 -21 10 35   0.3887  0.6246    15.7   154.7    29.4
    ...
    2023 03 13    19 02 31.8 -23 59 59   0.09024 0.9629    67.6   107.5    21.7
    ...
    2023 03 21    12 34 23.1 +09 03 52   0.1264  1.1196   167.5    11.1    19.5
    ...
    2023 03 27    11 33 37.9 +14 44 55   0.2446  1.2294   159.3    16.7    21.3
    2023 03 28    11 28 49.6 +15 07 45   0.2654  1.2472   157.5    17.9    21.6
    2023 03 29    11 24 44.5 +15 26 26   0.2865  1.2648   155.7    18.9    21.8
    ...
    2023 04 04    11 09 35.7 +16 26 34   0.4161  1.3674   146.9    23.5    22.9
    ...
    2023 04 12    11 01 36.0 +16 42 51   0.5957  1.4971   137.7    26.8    24.0
    ...
    2023 04 27    11 00 24.7 +16 05 47   0.9496  1.7224   123.4    29.2    25.4
    
    M. P. C. Staff               (C) Copyright 2023 MPC           M.P.E.C. 2023-F180
    


    Read MPEC 2023-F179 Read MPEC 2023-F181


    MPEC number:

    Enter an MPEC number in one of the following forms:

    • 1997-B01 (the full form)
    • J97B01 (the packed version of the full form)
    • B01 (the abbreviated form)